WetterOnline ( http://www.wetteronline.de )

Wetter aktuell Geisenheim

Aktuelles Wetter: Geisenheim (110m)

6-stündlich | Neueste Meldungen
Ortszeit Temperatur Wetter
Mo, 17.12. 13:00 2.7° C bewölkt
Mo, 17.12. 7:00 1.1° C Nebel
Mo, 17.12. 1:00 0.5° C bedeckt
So, 16.12. 19:00 -0.2° C bedeckt
So, 16.12. 13:00 -0.9° C bewölkt
So, 16.12. 7:00 -2.2° C leichter Schneefall
So, 16.12. 1:00 -0.8° C bewölkt
Sa, 15.12. 19:00 0.8° C bedeckt
Ortszeit Temperatur Wetter
Mo, 17.12. 13:30 3.1° C bedeckt
Mo, 17.12. 13:20 3.1° C bedeckt
Mo, 17.12. 13:10 3.0° C bedeckt
Mo, 17.12. 13:00 2.7° C bewölkt
Mo, 17.12. 12:50 2.7° C bedeckt
Mo, 17.12. 12:40 2.7° C bewölkt
Mo, 17.12. 12:30 2.6° C bedeckt
Mo, 17.12. 12:00 2.2° C bewölkt
Mo, 17.12. 11:30 2.0° C bedeckt
Mo, 17.12. 11:00 1.9° C Sprühregen
Mo, 17.12. 10:30 1.7° C leichter Regen
Ortszeit Relative Feuchte Sichtweite
Mo, 17.12. 13:00 95% 5.0 km
Mo, 17.12. 7:00 100% 0.6 km
Mo, 17.12. 1:00 99% 1.6 km
So, 16.12. 19:00 97% 3.5 km
So, 16.12. 13:00 88% 8 km
So, 16.12. 7:00 96% 1.5 km
So, 16.12. 1:00 71% 23 km
Sa, 15.12. 19:00 67% 30 km
Ortszeit Relative Feuchte Sichtweite
Mo, 17.12. 13:30 94% 6 km
Mo, 17.12. 13:20 94% -
Mo, 17.12. 13:10 95% -
Mo, 17.12. 13:00 95% 5.0 km
Mo, 17.12. 12:50 95% -
Mo, 17.12. 12:40 97% -
Mo, 17.12. 12:30 96% 4.8 km
Mo, 17.12. 12:00 99% 3.3 km
Mo, 17.12. 11:30 99% 3.1 km
Mo, 17.12. 11:00 98% 3.4 km
Mo, 17.12. 10:30 100% 2.8 km
Ortszeit Niederschlagsmenge Niederschlagsart
Mo, 17.12. 13:00 0.7 l/m2 in 6 Std. Regen
Mo, 17.12. 7:00 0.0 l/m2 in 12 Std. -
Mo, 17.12. 1:00 0.0 l/m2 in 6 Std. -
So, 16.12. 19:00 0.6 l/m2 in 12 Std. Regen
So, 16.12. 13:00 0.4 l/m2 in 6 Std. Schnee, Regen
So, 16.12. 7:00 2 l/m2 in 12 Std. Schnee, Regen
So, 16.12. 1:00 0.0 l/m2 in 6 Std. -
Sa, 15.12. 19:00 0.1 l/m2 in 12 Std. -
Ortszeit Niederschlagsmenge Niederschlagsart
Mo, 17.12. 13:30 0.0 l/m2 in 1 Std. -
Mo, 17.12. 13:20 keine Meldung -
Mo, 17.12. 13:10 keine Meldung -
Mo, 17.12. 13:00 0.0 l/m2 in 1 Std. Regen
Mo, 17.12. 12:50 keine Meldung -
Mo, 17.12. 12:40 keine Meldung -
Mo, 17.12. 12:30 0.0 l/m2 in 1 Std. -
Mo, 17.12. 12:00 0.1 l/m2 in 1 Std. Sprühregen
Mo, 17.12. 11:30 0.1 l/m2 in 1 Std. Schnee
Mo, 17.12. 11:00 0.1 l/m2 in 1 Std. Regen
Mo, 17.12. 10:30 0.1 l/m2 in 1 Std. -
Ortszeit Stärke Spitze Richtung
km/h Bft. km/h Grad Sektor
Mo, 17.12. 13:00 4 1 7 60° NO
Mo, 17.12. 7:00 4 1 7 60° NO
Mo, 17.12. 1:00 4 1 7 10° N
So, 16.12. 19:00 4 1 11 40° NO
So, 16.12. 13:00 4 1 14 240° SW
So, 16.12. 7:00 7 2 22 90° O
So, 16.12. 1:00 11 2 29 100° O
Sa, 15.12. 19:00 14 3 25 140° SO
Ortszeit Stärke Spitze Richtung
km/h Bft. km/h Grad Sektor
Mo, 17.12. 13:30 4 1 7 80° O
Mo, 17.12. 13:20 4 1 - 80° O
Mo, 17.12. 13:10 4 1 - 90° O
Mo, 17.12. 13:00 4 1 7 60° NO
Mo, 17.12. 12:50 4 1 - 60° NO
Mo, 17.12. 12:40 4 1 - 50° NO
Mo, 17.12. 12:30 4 1 7 110° O
Mo, 17.12. 12:00 0 0 7 - -
Mo, 17.12. 11:30 4 1 7 120° SO
Mo, 17.12. 11:00 2 1 4 90° O
Mo, 17.12. 10:30 0 0 4 - -
Ortszeit Untergrenze Bedeckung Gattung
total tief tief mittel hoch
Mo, 17.12. 13:00 210 m 8/8 7/8 - - -
Mo, 17.12. 7:00 30 m 8/8 8/8 - - -
Mo, 17.12. 1:00 60 m 8/8 8/8 - - -
So, 16.12. 19:00 90 m 8/8 8/8 - - -
So, 16.12. 13:00 210 m 7/8 8/8 - - -
So, 16.12. 7:00 30 m 7/8 7/8 - - -
So, 16.12. 1:00 840 m 8/8 7/8 - - -
Sa, 15.12. 19:00 810 m 8/8 8/8 - - -
Ortszeit Bedeckungsgrad in Achtel und Wolkenuntergrenze
Mo, 17.12. 13:30 7(270m) 8(660m)
Mo, 17.12. 13:20 7(270m) 8(660m)
Mo, 17.12. 13:10 7(240m) 8(660m)
Mo, 17.12. 13:00 8(210m) 7(690m)
Mo, 17.12. 12:50 8(210m)
Mo, 17.12. 12:40 7(240m)
Mo, 17.12. 12:30 2(120m) 8(240m)
Mo, 17.12. 12:00 7(60m) 8(210m)
Mo, 17.12. 11:30 7(60m) 8(240m)
Mo, 17.12. 11:00 8(60m)
Mo, 17.12. 10:30 8(60m)
Ortszeit Luftdruck NN (hPa) Tendenz (hPa in 3 Std.)
Mo, 17.12. 13:00 1022 + 0,8
Mo, 17.12. 7:00 1019 + 1,4
Mo, 17.12. 1:00 1017 + 0,8
So, 16.12. 19:00 1016 + 1,2
So, 16.12. 13:00 1014 - 0,2
So, 16.12. 7:00 1014 - 1,5
So, 16.12. 1:00 1018 - 3,3
Sa, 15.12. 19:00 1023 - 1,4
Ortszeit Luftdruck NN (hPa) Tendenz (hPa in 3 Std.)
Mo, 17.12. 13:30 1022 + 0,5
Mo, 17.12. 13:20 1022 keine Meldung
Mo, 17.12. 13:10 1022 keine Meldung
Mo, 17.12. 13:00 1022 + 0,8
Mo, 17.12. 12:50 1022 keine Meldung
Mo, 17.12. 12:40 1022 keine Meldung
Mo, 17.12. 12:30 1022 + 1,2
Mo, 17.12. 12:00 1022 + 1,5
Mo, 17.12. 11:30 1022 + 1,7
Mo, 17.12. 11:00 1022 + 2,1
Mo, 17.12. 10:30 1022 + 2,2
Ortszeit Schneehöhe (cm)
Mo, 17.12. 13:00 0
Mo, 17.12. 7:00 0
Mo, 17.12. 1:00 0
So, 16.12. 19:00 1
So, 16.12. 13:00 2
So, 16.12. 7:00 3
So, 16.12. 1:00 0
Sa, 15.12. 19:00 0
Ortszeit Schneehöhe (cm)
Mo, 17.12. 13:30 0
Mo, 17.12. 13:20 0
Mo, 17.12. 13:10 0
Mo, 17.12. 13:00 0
Mo, 17.12. 12:50 0
Mo, 17.12. 12:40 0
Mo, 17.12. 12:30 0
Mo, 17.12. 12:00 0
Mo, 17.12. 11:30 0
Mo, 17.12. 11:00 0
Mo, 17.12. 10:30 0
Link zu dieser Seite / Seite empfehlen

Das Wetter in ...